Wichita Jabara, KS

1:46 PM CST on November 24, 2017 (GMT -0600)
Col Jabara

Weather History for KAAO - May, 2013

Change the Weather History Date:

Tuesday, May 14, 2013

  Actual Average (KIAB) Record (KIAB)
Temperature  
Mean Temperature 76 °F -  
Max Temperature 90 °F 74 °F 87 °F (2013)
Min Temperature 64 °F 54 °F 42 °F (2004)
Cooling Degree Days 12    
Growing Degree Days 26 (Base 50)    
Moisture  
Dew Point 49 °F    
Average Humidity 39    
Maximum Humidity 53    
Minimum Humidity 25    
Precipitation  
Precipitation 0.00 in - - ()
Sea Level Pressure  
Sea Level Pressure 29.87 in    
Wind  
Wind Speed 16 mph (SSW)    
Max Wind Speed 24 mph    
Max Gust Speed 36 mph    
Visibility 10 miles    
Events      
Averages and records for this station are not official NWS values.
T = Trace of Precipitation, MM = Missing Value Source: NWS Daily Summary

Daily Weather History Graph

Daily Weather History Graph

Search for Another Location

Airport or City:

Trip Planner

Search our weather history database for the weather conditions in past years. The results will help you decide how hot, cold, wet, or windy it might be!

Date:

Astronomy

May. 14, 2013 Rise Set
Actual Time 6:19 AM CDT 8:31 PM CDT
Civil Twilight 5:50 AM CDT 9:00 PM CDT
Nautical Twilight 5:14 AM CDT 9:36 PM CDT
Astronomical Twilight 4:35 AM CDT 10:15 PM CDT
Moon 10:00 AM CDT (5/14) No Moon Set
Length of Visible Light 15h 10m
Length of Day
14h 11m
Waxing Crescent, 19% of the Moon is Illuminated
May 14
Waxing Crescent
May 17
First Quarter
May 24
Full
May 31
Last Quarter
Jun 8
New

Hourly Weather History & Observations

Time (CDT) Temp. Heat Index Dew Point Humidity Pressure Visibility Wind Dir Wind Speed Gust Speed Precip Events Conditions
12:54 AM 71.1 °F - 53.1 °F 53% 29.91 in 10.0 mi SSW 13.8 mph - N/A   Clear
1:54 AM 71.1 °F - 50.0 °F 47% 29.90 in 10.0 mi SSW 15.0 mph 23.0 mph N/A   Clear
2:54 AM 70.0 °F - 46.9 °F 44% 29.90 in 10.0 mi SW 16.1 mph - N/A   Clear
3:54 AM 68.0 °F - 46.9 °F 47% 29.90 in 10.0 mi SSW 15.0 mph - N/A   Clear
4:54 AM 66.0 °F - 45.0 °F 47% 29.90 in 10.0 mi SSW 12.7 mph 19.6 mph N/A   Clear
5:54 AM 64.9 °F - 44.1 °F 47% 29.90 in 10.0 mi SSW 15.0 mph - N/A   Clear
6:54 AM 66.0 °F - 44.1 °F 45% 29.91 in 10.0 mi SSW 15.0 mph 23.0 mph N/A   Clear
7:54 AM 68.0 °F - 44.1 °F 42% 29.92 in 10.0 mi SSW 13.8 mph 24.2 mph N/A   Clear
8:54 AM 72.0 °F - 45.0 °F 38% 29.92 in 10.0 mi SW 21.9 mph 26.5 mph N/A   Clear
9:54 AM 75.9 °F - 46.0 °F 35% 29.92 in 10.0 mi SW 21.9 mph 28.8 mph N/A   Clear
10:54 AM 81.0 °F - 48.9 °F 33% 29.91 in 10.0 mi SW 18.4 mph 25.3 mph N/A   Clear
11:54 AM 84.0 °F - 51.1 °F 32% 29.91 in 10.0 mi SW 18.4 mph 28.8 mph N/A   Clear
12:54 PM 84.9 °F 83.3 °F 54.0 °F 34% 29.90 in 10.0 mi SSW 19.6 mph 26.5 mph N/A   Clear
1:54 PM 88.0 °F - 50.0 °F 27% 29.87 in 10.0 mi SSW 20.7 mph 29.9 mph N/A   Clear
2:54 PM 89.1 °F - 51.1 °F 27% 29.86 in 10.0 mi SSW 19.6 mph 29.9 mph N/A   Clear
3:54 PM 88.0 °F - 50.0 °F 27% 29.84 in 10.0 mi SW 19.6 mph 35.7 mph N/A   Clear
4:54 PM 88.0 °F - 48.0 °F 25% 29.83 in 10.0 mi SSW 24.2 mph 32.2 mph N/A   Clear
5:54 PM 86.0 °F - 46.9 °F 26% 29.82 in 10.0 mi SSW 24.2 mph 33.4 mph N/A   Clear
6:54 PM 84.0 °F - 50.0 °F 31% 29.81 in 10.0 mi South 17.3 mph 27.6 mph N/A   Clear
7:54 PM 80.1 °F 80.0 °F 54.0 °F 40% 29.81 in 10.0 mi South 15.0 mph 25.3 mph N/A   Clear
8:54 PM 77.0 °F - 55.0 °F 47% 29.82 in 10.0 mi South 13.8 mph - N/A   Clear
9:54 PM 75.0 °F - 54.0 °F 48% 29.83 in 10.0 mi South 12.7 mph - N/A   Clear
10:54 PM 73.9 °F - 53.1 °F 48% 29.84 in 10.0 mi South 13.8 mph - N/A   Clear
11:54 PM 72.0 °F - 53.1 °F 51% 29.84 in 10.0 mi South 15.0 mph - N/A   Clear